FW2728 Weather Reports


time (UTC)temp
F
wind
direction
speed
knots
gust
knots
rain 1hr
in
rain 24hr
in
rain mn
in
humidity
%
barometer
mb
20260906234016 99 98 2.6 6.1 0.00 0.00 0.00 38 1010.8
20260906233017 100 84 2.6 7.0 0.00 0.00 0.00 37 1010.7
20260906232017 100 83 0.9 3.5 0.00 0.00 0.00 35 1010.8
20260906231017 99 116 0.9 4.3 0.00 0.00 0.00 36 1010.8
20260906230017 100 102 3.5 7.0 0.00 0.00 0.00 35 1010.7
20260906225017 100 91 3.5 7.8 0.00 0.00 0.00 36 1010.7
20260906224017 101 80 2.6 6.1 0.00 0.00 0.00 36 1010.8
20260906223017 100 81 2.6 7.8 0.00 0.00 0.00 36 1010.8
20260906222018 101 104 2.6 6.1 0.00 0.00 0.00 36 1011.0
20260906221017 100 107 2.6 7.8 0.00 0.00 0.00 37 1011.0
20260906220038 101 82 3.5 7.0 0.00 0.00 0.00 35 1011.0
20260906215015 101 103 2.6 7.0 0.00 0.00 0.00 36 1011.0
20260906214015 102 140 1.7 5.2 0.00 0.00 0.00 35 1011.1
20260906213036 101 90 3.5 7.0 0.00 0.00 0.00 36 1011.2
20260906212015 102 93 2.6 6.1 0.00 0.00 0.00 36 1011.4
20260906211016 102 93 2.6 7.8 0.00 0.00 0.00 36 1011.5
20260906210016 102 55 2.6 6.1 0.00 0.00 0.00 36 1011.6
20260906205016 101 189 0.9 4.3 0.00 0.00 0.00 37 1011.7
20260906204036 102 87 2.6 5.2 0.00 0.00 0.00 37 1011.8
20260906203037 101 87 2.6 6.1 0.00 0.00 0.00 37 1011.9
20260906202017 100 149 1.7 6.1 0.00 0.00 0.00 38 1012.0
20260906201017 100 160 2.6 6.1 0.00 0.00 0.00 38 1012.1
20260906200037 100 88 2.6 6.1 0.00 0.00 0.00 38 1012.2
20260906195017 100 102 2.6 7.0 0.00 0.00 0.00 38 1012.3
20260906194037 99 85 2.6 6.1 0.00 0.00 0.00 40 1012.4
20260906193017 100 82 3.5 7.0 0.00 0.00 0.00 41 1012.6
20260906192038 99 111 1.7 5.2 0.00 0.00 0.00 40 1012.7
20260906191018 99 88 3.5 7.0 0.00 0.00 0.00 41 1012.8
20260906190018 99 142 2.6 7.8 0.00 0.00 0.00 41 1012.9
20260906185018 99 126 2.6 7.0 0.00 0.00 0.00 41 1013.1
20260906184018 98 77 2.6 6.1 0.00 0.00 0.00 43 1013.0
20260906183015 98 125 3.5 7.0 0.00 0.00 0.00 43 1013.1
20260906182036 98 89 1.7 5.2 0.00 0.00 0.00 43 1013.3
20260906181035 97 79 1.7 7.0 0.00 0.00 0.00 44 1013.4
20260906180016 97 120 2.6 5.2 0.00 0.00 0.00 46 1013.6
20260906175016 97 77 1.7 7.8 0.00 0.00 0.00 45 1013.7
20260906174016 97 138 2.6 6.1 0.00 0.00 0.00 45 1014.0
20260906173016 96 144 1.7 5.2 0.00 0.00 0.00 46 1014.2
20260906172017 96 66 2.6 6.1 0.00 0.00 0.00 46 1014.3
20260906171016 95 69 2.6 6.1 0.00 0.00 0.00 47 1014.5
20260906170017 95 89 2.6 7.8 0.00 0.00 0.00 49 1014.6
20260906165017 95 89 2.6 7.0 0.00 0.00 0.00 49 1014.7
20260906164017 95 118 1.7 3.5 0.00 0.00 0.00 48 1014.7
20260906163017 94 76 1.7 4.3 0.00 0.00 0.00 50 1014.7
20260906162017 94 122 2.6 5.2 0.00 0.00 0.00 52 1014.6
20260906161018 93 64 1.7 3.5 0.00 0.00 0.00 54 1014.6
20260906160018 92 110 1.7 3.5 0.00 0.00 0.00 56 1014.7
20260906155017 91 88 1.7 7.0 0.00 0.00 0.00 57 1014.8
20260906154018 91 110 1.7 4.3 0.00 0.00 0.00 59 1014.7
20260906153035 91 80 1.7 4.3 0.00 0.00 0.00 59 1014.7
20260906152038 90 84 0.9 2.6 0.00 0.00 0.00 60 1014.6
20260906151015 89 94 0.9 3.5 0.00 0.00 0.00 61 1014.6
20260906150015 88 70 0.9 3.5 0.00 0.00 0.00 63 1014.5
20260906145016 88 102 0.9 3.5 0.00 0.00 0.00 64 1014.4
20260906144016 88 120 0.9 2.6 0.00 0.00 0.00 64 1014.4
20260906143036 87 114 0.9 4.3 0.00 0.00 0.00 65 1014.4
20260906142037 86 115 0.9 2.6 0.00 0.00 0.00 67 1014.4
20260906141016 86 80 0.9 3.5 0.00 0.00 0.00 68 1014.4
20260906140016 85 81 0.9 2.6 0.00 0.00 0.00 70 1014.3
20260906135037 84 89 0.9 3.5 0.00 0.00 0.00 70 1014.2
20260906134037 83 122 0.0 1.7 0.00 0.00 0.00 72 1014.3
20260906133017 83 115 0.9 2.6 0.00 0.00 0.00 73 1014.3
20260906132017 83 92 0.9 1.7 0.00 0.00 0.00 73 1014.3
20260906131017 81 124 0.0 1.7 0.00 0.00 0.00 76 1014.3
20260906130017 80 110 0.0 1.7 0.00 0.00 0.00 79 1014.2
20260906125018 79 101 0.9 1.7 0.00 0.00 0.00 82 1014.1
20260906124018 78 88 0.9 1.7 0.00 0.00 0.00 83 1014.2
20260906123018 78 126 0.0 1.7 0.00 0.00 0.00 84 1014.1
20260906122018 77 122 0.9 2.6 0.00 0.00 0.00 84 1014.0
20260906121016 77 147 0.0 1.7 0.00 0.00 0.00 85 1013.9
20260906120015 77 67 0.0 0.9 0.00 0.00 0.00 84 1013.8
20260906115015 77 71 0.0 0.9 0.00 0.00 0.00 85 1013.7
20260906114036 77 33 0.0 0.9 0.00 0.00 0.00 84 1013.5
20260906113016 77 0.0 0.0 0.00 0.00 0.00 84 1013.6
20260906112016 78 0.0 0.0 0.00 0.00 0.00 83 1013.4
20260906111016 78 0.0 0.0 0.00 0.00 0.00 83 1013.4
20260906110017 78 50 0.0 0.9 0.00 0.00 0.00 82 1013.3
20260906105017 78 74 0.0 0.9 0.00 0.00 0.00 82 1013.3
20260906104017 78 49 0.0 0.9 0.00 0.00 0.00 82 1013.3
20260906103017 78 56 0.0 0.9 0.00 0.00 0.00 82 1013.3
20260906102017 78 38 0.0 0.0 0.00 0.00 0.00 81 1013.2
20260906101017 79 0.0 0.0 0.00 0.00 0.00 81 1013.0
20260906100017 79 47 0.0 0.9 0.00 0.00 0.00 81 1012.9
20260906095038 79 0.0 0.0 0.00 0.00 0.00 80 1012.7
20260906094018 79 249 0.0 0.9 0.00 0.00 0.00 79 1012.7
20260906093018 80 0.0 0.0 0.00 0.00 0.00 78 1012.7
20260906092038 80 332 0.0 0.0 0.00 0.00 0.00 78 1012.7
20260906091016 80 74 0.0 0.9 0.00 0.00 0.00 77 1012.6
20260906090016 80 73 0.0 0.9 0.00 0.00 0.00 76 1012.5
20260906085016 81 67 0.0 0.0 0.00 0.00 0.00 75 1012.4
20260906084116 81 246 0.9 2.6 0.00 0.00 0.00 75 1012.5
20260906083016 81 0.0 0.0 0.00 0.00 0.00 74 1012.6
20260906082017 82 165 0.0 0.9 0.00 0.00 0.00 74 1012.6
20260906081016 82 106 0.0 0.9 0.00 0.00 0.00 73 1012.5
20260906080017 82 194 0.0 2.6 0.00 0.00 0.00 73 1012.6
20260906075017 82 189 0.9 3.5 0.00 0.00 0.00 72 1012.7
20260906074017 83 200 0.9 2.6 0.00 0.00 0.00 72 1012.7
20260906073017 83 217 1.7 4.3 0.00 0.00 0.00 72 1012.7
20260906072018 83 181 1.7 4.3 0.00 0.00 0.00 71 1012.7
20260906071017 83 178 0.9 2.6 0.00 0.00 0.00 71 1012.9
20260906070018 83 191 0.9 3.5 0.00 0.00 0.00 71 1012.9
20260906065018 84 196 0.9 3.5 0.00 0.00 0.00 70 1012.9
20260906064038 84 192 0.9 5.2 0.00 0.00 0.00 70 1013.0
20260906063016 84 183 1.7 4.3 0.00 0.00 0.00 70 1013.1
20260906062036 84 193 0.9 4.3 0.00 0.00 0.00 70 1013.2
20260906061015 84 203 0.0 1.7 0.00 0.00 0.00 70 1013.2
20260906060016 84 158 0.0 1.7 0.00 0.00 0.00 69 1013.1
20260906055016 85 191 0.0 1.7 0.00 0.00 0.00 69 1013.1
20260906054036 85 192 0.9 3.5 0.00 0.00 0.00 69 1013.0
20260906053016 85 190 0.0 2.6 0.00 0.00 0.00 68 1013.0
20260906052016 85 120 0.0 2.6 0.00 0.00 0.00 68 1013.0
20260906051017 86 218 0.9 4.3 0.00 0.00 0.00 67 1013.0
20260906050037 86 160 0.0 1.7 0.00 0.00 0.00 67 1013.0
20260906045038 86 202 1.7 4.3 0.00 0.00 0.00 67 1013.1
20260906044018 86 152 0.9 2.6 0.00 0.00 0.00 66 1012.9
20260906043038 86 183 0.9 3.5 0.00 0.00 0.00 65 1012.8
20260906042018 87 141 0.9 2.6 0.00 0.00 0.00 65 1012.8
20260906041016 87 198 1.7 5.2 0.00 0.00 0.00 64 1012.7
20260906040016 87 128 0.9 3.5 0.00 0.00 0.00 63 1012.8
20260906035116 87 127 0.9 3.5 0.00 0.00 0.00 63 1012.7
20260906034015 87 122 0.9 4.3 0.00 0.00 0.00 62 1012.9
20260906033016 88 153 0.9 4.3 0.00 0.00 0.00 62 1012.9
20260906032016 88 186 1.7 4.3 0.00 0.00 0.00 61 1012.9
20260906031017 88 142 1.7 4.3 0.00 0.00 0.00 61 1012.9
20260906030016 88 133 1.7 7.8 0.00 0.00 0.00 60 1012.8
20260906025017 88 134 1.7 6.1 0.00 0.00 0.00 59 1012.8
20260906024017 88 117 2.6 5.2 0.00 0.00 0.00 59 1012.7
20260906023057 88 123 1.7 4.3 0.00 0.00 0.00 59 1012.5
20260906022017 89 127 1.7 5.2 0.00 0.00 0.00 59 1012.3
20260906021017 89 158 0.9 3.5 0.00 0.00 0.00 58 1012.1
20260906020018 89 142 2.6 5.2 0.00 0.00 0.00 58 1012.0
20260906015016 90 148 2.6 6.1 0.00 0.00 0.00 57 1011.9
20260906014016 90 152 2.6 6.1 0.00 0.00 0.00 56 1011.7
20260906013015 91 129 2.6 6.1 0.00 0.00 0.00 54 1011.6
20260906012035 91 135 2.6 8.7 0.00 0.00 0.00 53 1011.4
20260906011016 92 104 2.6 6.1 0.00 0.00 0.00 52 1011.3
20260906010016 93 120 2.6 8.7 0.00 0.00 0.00 51 1011.2
20260906005016 95 120 3.5 7.8 0.00 0.00 0.00 45 1011.1
20260906004016 96 102 1.7 6.1 0.00 0.00 0.00 41 1010.8
20260906003036 97 118 1.7 4.3 0.00 0.00 0.00 40 1010.9
20260906002016 97 104 2.6 7.0 0.00 0.00 0.00 39 1010.8
20260906001036 98 107 2.6 5.2 0.00 0.00 0.00 38 1010.7
20260906000017 99 114 1.7 5.2 0.00 0.00 0.00 37 1010.6
20260905235017 100 98 1.7 4.3 0.00 0.00 0.00 36 1010.5